Location: Newark
(58.8333°N, 23.5833°E)
Time: 06:35:38
(UTC+00:00)

Explorer 7 - Pass Details

Date: 19 November 2019
Orbit: 485 x 680 km, 50.3° (Epoch: 05 December)

Event Time Altitude Azimuth Distance (km) Brightness Sun altitude
Rises 00:47:53 0° 242° (WSW) 2,875 - -41.4°
Reaches altitude 10° 00:50:31 10° 229° (SW) 1,934 - -41.2°
Maximum altitude 00:54:10 25° 174° (S) 1,163 - -40.8°
Drops below altitude 10° 00:57:37 10° 118° (ESE) 1,832 - -40.4°
Sets 01:00:03 0° 105° (ESE) 2,690 - -40.1°
